GFSSW_2pvu_pres_021.txt.gz
Presure
183 188 162 191 200 111 200 198 181 207 173 149 185 155 213 207 136 193 358 343 251 346 352 322 187 125 224 156 132 128 116 136 149 145 143 156 125 153 129 133 127 138 121 126 139
189 185 188 186 189 192 191 179 217 201 141 218 213 201 217 186 211 272 371 379 304 187 108 371 193 194 265 133 130 188 141 142 142 141 143 149 151 128 123 123 130 139 128 134 107
187 195 185 186 191 192 193 185 215 180 205 194 213 219 207 221 247 277 365 325 345 291 107 350 94 271 153 225 248 169 142 175 134 139 127 150 155 113 126 137 138 140 142 120 109
185 184 185 184 187 173 184 166 184 191 204 211 222 215 219 189 247 283 363 351 368 364 365 266 273 259 250 242 182 150 131 137 132 122 152 152 124 158 110 116 126 144 132 111 109
184 182 181 184 183 192 158 185 195 185 205 212 203 221 224 187 260 258 310 313 335 269 251 264 275 262 249 219 247 180 194 249 174 187 187 151 134 144 119 123 200 128 121 134 183
181 178 183 186 187 186 184 139 173 192 183 201 200 185 213 197 262 284 304 303 324 256 252 258 264 260 251 254 245 244 141 211 226 229 192 119 143 124 130 106 109 133 127 126 116
176 180 128 192 187 180 176 195 188 189 187 214 212 176 200 196 254 361 286 305 330 243 248 254 263 111 134 201 239 235 223 140 117 220 135 156 115 111 139 118 144 136 195 126 115
172 175 176 182 189 172 188 198 195 181 201 208 191 214 204 217 252 359 244 329 325 239 253 262 268 132 241 211 233 228 110 217 134 155 199 117 150 125 113 111 146 148 140 140 127
173 182 181 189 174 184 192 183 188 170 204 205 208 188 223 220 248 329 238 298 292 242 251 269 255 256 248 236 203 113 147 176 239 136 174 127 122 189 127 112 133 125 123 138 121
177 177 175 193 148 181 193 173 176 196 192 192 213 191 181 235 253 317 237 245 253 249 257 259 251 253 242 240 212 231 226 127 188 227 200 181 124 138 134 140 135 120 123 122 126
182 178 179 189 172 185 162 184 175 178 195 216 201 177 209 237 240 233 226 215 233 247 249 252 250 242 242 205 235 233 237 234 108 223 163 227 148 145 131 133 126 143 139 206 133
180 191 172 183 183 187 191 176 192 171 202 218 215 222 197 237 252 242 220 222 225 237 251 250 254 243 239 142 184 235 235 227 235 228 230 217 225 231 225 218 211 215 149 174 220
142 177 186 150 184 157 191 162 181 179 197 200 217 187 204 245 236 257 215 221 226 229 236 237 237 243 238 247 232 228 231 222 223 220 220 225 219 218 219 226 222 221 215 219 219
186 188 183 177 176 168 178 182 214 210 192 207 208 201 224 244 246 267 213 223 221 172 160 235 232 241 240 256 236 229 230 227 222 223 216 217 225 219 215 210 214 225 222 224 224
163 149 188 191 187 192 154 200 184 179 188 210 207 185 175 240 250 278 207 223 219 225 223 209 241 244 247 244 231 232 222 224 215 226 217 223 217 217 220 223 221 212 216 160 209
177 165 183 178 186 160 174 188 179 182 197 178 196 177 225 220 248 270 213 217 218 199 187 133 131 133 135 230 224 199 195 209 208 209 217 221 225 210 217 216 201 203 210 222 222
179 176 184 149 125 197 173 187 177 170 205 177 162 178 178 224 243 263 125 133 213 215 220 222 234 231 231 231 228 222 220 212 213 217 230 215 160 152 206 207 210 212 210 221 209
174 179 193 166 138 208 188 187 187 182 187 170 179 187 223 209 248 256 209 213 207 215 218 205 226 228 232 221 215 217 221 220 220 216 215 159 205 137 145 206 211 208 229 215 225
183 138 195 186 197 204 196 170 172 148 194 166 207 208 191 223 236 249 133 219 209 217 215 213 210 215 213 224 228 227 218 221 217 204 135 118 114 118 208 209 216 214 217 221 230
202 204 176 200 188 194 180 187 168 182 177 204 178 186 194 190 225 235 213 125 214 223 222 210 206 212 213 219 215 208 209 208 204 174 123 203 209 126 177 222 215 220 235 223 205
158 194 193 206 210 181 194 186 190 197 181 199 202 193 167 177 245 246 212 143 215 215 202 217 215 209 204 210 205 200 210 211 209 210 209 210 133 161 225 226 236 217 207 200 199
162 172 211 201 202 189 186 187 177 188 193 197 209 199 219 238 219 260 132 135 234 217 208 200 207 204 219 210 214 210 213 210 205 204 210 215 220 210 214 226 212 214 201 202 206
196 161 214 213 196 220 167 172 196 184 183 210 190 197 230 231 237 259 125 131 232 200 220 224 216 214 210 209 213 218 217 221 224 218 223 214 241 231 221 211 200 200 195 197 198
210 199 184 119 132 199 196 170 182 186 215 197 206 204 176 240 225 255 204 204 206 230 227 224 223 220 219 222 218 216 213 212 209 205 208 241 219 215 200 198 196 201 203 203 190
204 192 228 236 204 178 209 198 194 196 194 206 205 195 177 244 224 278 238 218 215 226 223 217 218 216 216 213 209 196 206 206 203 207 232 223 207 201 199 196 201 196 189 195 203
209 226 180 217 196 214 209 200 217 210 189 199 208 197 178 173 180 265 244 212 203 222 212 214 212 210 204 204 205 205 208 213 253 242 216 210 196 202 195 195 189 193 191 187 187
221 211 176 163 226 220 210 209 170 193 208 209 214 191 240 177 217 265 240 205 214 216 209 209 201 202 206 197 205 224 215 247 233 219 209 197 199 197 190 189 188 191 194 193 193

GFSSW_2pvu_pres_024.txt.gz
Presure
209 188 196 191 190 190 194 192 199 172 136 198 199 197 184 205 211 215 225 201 315 341 317 345 170 263 263 229 180 121 167 192 235 125 199 141 124 148 150 151 127 142 128 135 133
188 189 195 150 190 185 190 191 197 192 194 196 181 123 193 208 221 219 217 309 309 330 328 303 342 277 249 274 222 196 253 266 231 116 124 120 150 135 140 138 148 140 141 135 120
185 191 185 184 185 187 186 192 187 189 177 176 195 191 186 205 205 223 218 312 302 334 372 301 370 348 109 273 240 241 126 196 174 109 155 277 138 147 137 137 146 149 140 132 133
192 188 187 184 195 182 184 188 187 186 205 161 168 177 195 209 216 225 232 362 254 332 304 256 335 252 143 259 201 242 129 261 143 112 133 254 150 131 146 165 140 166 143 143 121
189 203 193 186 185 184 184 184 188 198 193 171 189 190 191 199 220 212 257 298 249 356 253 263 266 260 274 257 243 148 244 255 215 132 138 241 126 131 247 147 162 178 129 123 144
181 203 190 181 189 183 182 176 159 198 173 185 184 187 201 197 220 221 210 298 243 326 248 258 260 277 256 241 235 255 243 195 240 191 217 137 130 161 132 149 138 145 184 125 115
207 189 190 185 188 184 157 180 182 196 192 200 195 180 171 205 220 205 245 247 235 348 244 260 269 274 250 240 232 233 241 236 229 148 145 178 141 239 150 192 147 147 119 119 147
181 194 194 181 175 175 173 173 187 168 191 183 185 169 184 200 203 200 242 333 229 260 252 253 253 262 118 245 239 239 233 233 233 224 158 192 224 230 145 137 231 141 149 141 120
199 160 182 181 187 179 187 194 190 191 195 168 161 186 196 193 212 202 211 296 228 257 248 259 276 247 248 220 218 219 229 226 234 175 214 213 220 162 218 125 117 141 126 117 119
163 191 186 171 184 182 188 193 180 186 192 185 183 191 191 202 211 216 237 334 229 237 259 258 273 247 237 238 147 143 232 229 231 228 126 156 210 132 132 132 130 117 140 144 188
194 191 199 190 185 150 179 140 177 187 180 190 170 207 203 195 202 193 225 329 219 238 229 225 260 260 243 240 238 230 233 238 233 121 141 118 222 125 122 118 207 119 123 119 131
180 190 191 191 174 175 176 176 195 146 165 165 194 189 188 198 202 183 241 294 217 227 235 242 256 256 254 249 239 230 226 122 135 233 121 185 218 218 159 125 225 201 206 205 127
171 189 188 171 183 179 174 191 184 172 173 190 174 183 202 191 207 177 215 272 217 225 234 232 225 241 242 235 243 237 236 224 170 234 220 227 221 217 221 225 187 215 139 215 186
185 184 190 167 173 190 177 194 166 178 154 197 193 180 191 195 190 178 219 263 217 221 235 229 232 229 225 240 230 233 222 223 225 218 225 219 225 211 223 217 221 216 208 210 221
183 182 173 189 169 187 192 154 182 180 162 187 172 200 183 191 169 192 182 255 219 217 227 232 237 235 235 242 240 244 219 226 220 215 224 223 226 223 215 217 216 213 210 210 213
179 182 175 192 182 151 170 149 153 193 170 151 195 207 178 205 205 219 233 244 238 218 218 235 230 236 245 245 250 252 226 225 220 217 228 215 216 228 216 208 207 217 220 220 223
188 189 177 188 193 185 198 199 198 192 195 174 185 210 201 186 217 176 230 228 249 214 220 216 222 164 233 242 133 230 225 220 220 220 213 218 197 210 214 219 219 222 215 211 202
201 182 195 168 194 192 182 182 178 166 188 175 193 212 187 206 175 204 235 236 267 134 214 219 221 226 224 238 230 235 221 219 218 212 208 214 226 218 214 167 179 206 215 204 195
217 164 186 196 197 194 183 174 181 173 202 191 165 193 221 185 178 193 179 242 267 210 117 211 219 228 221 216 232 233 223 217 216 222 222 218 219 207 175 190 125 119 118 218 222
197 206 200 166 204 205 207 198 171 185 197 184 175 188 185 192 204 177 230 232 261 140 212 210 233 221 222 216 210 217 204 219 217 215 218 220 203 203 179 163 150 210 137 224 222
221 217 174 192 175 193 193 197 188 190 171 201 196 174 212 189 211 168 202 222 252 257 207 228 219 215 208 208 208 213 211 205 206 211 208 209 204 212 141 212 213 128 186 235 225
201 159 156 224 218 208 202 186 188 208 202 220 169 203 181 186 205 209 194 240 219 271 203 240 222 207 204 232 218 203 211 207 204 209 210 214 206 214 217 220 209 223 224 213 207
229 208 195 211 228 217 194 201 159 208 173 181 189 188 178 193 195 190 183 237 236 271 209 231 206 216 225 265 215 211 205 209 213 212 212 223 237 221 219 212 231 218 210 205 197
231 220 150 223 204 217 184 213 204 165 205 217 190 197 217 206 203 212 192 197 247 270 220 203 241 238 231 224 221 220 223 223 223 220 222 219 209 206 210 229 218 212 201 199 197
243 189 223 149 215 207 196 169 154 220 183 222 212 216 205 203 209 206 183 189 245 278 236 222 231 233 229 229 222 216 216 212 203 205 209 210 207 210 231 215 203 202 202 198 200
256 239 143 104 163 135 204 197 204 209 200 194 194 199 219 212 214 199 200 176 244 275 239 212 209 224 216 214 212 207 210 207 206 204 208 206 250 233 210 201 198 199 195 193 190
260 167 238 219 224 204 189 206 188 200 172 178 190 197 201 226 213 186 174 185 242 227 242 218 215 222 221 214 203 208 215 206 207 226 211 251 229 217 212 195 193 192 191 190 193

GFSSW_2pvu_pres_027.txt.gz
Presure
186 189 191 175 186 181 196 191 195 151 180 189 190 162 192 196 183 196 213 205 237 237 267 370 355 354 302 272 188 263 279 173 230 272 270 248 138 188 187 147 243 158 154 132 158
164 173 184 181 193 193 197 196 191 183 184 194 191 192 182 199 189 206 194 209 208 312 258 360 313 327 310 272 258 263 203 264 261 259 131 277 287 126 125 211 160 155 141 139 136
189 171 184 190 187 191 186 193 191 195 189 187 186 185 194 208 201 190 204 212 224 286 250 384 261 311 313 279 248 283 263 114 258 267 130 154 172 151 149 186 167 217 141 129 143
195 191 203 193 187 191 184 194 197 193 185 190 186 194 118 185 99 179 197 195 237 291 244 259 326 383 319 268 255 253 153 252 124 238 141 237 135 124 226 128 231 158 141 122 227
188 215 188 185 181 184 192 174 195 182 190 184 192 179 184 183 189 196 204 216 226 263 239 260 271 269 258 254 271 210 188 239 236 148 139 200 211 136 129 132 222 136 126 132 147
196 183 186 182 191 190 180 176 198 171 182 152 176 179 201 188 200 180 207 176 208 279 232 257 269 269 273 279 253 253 249 106 202 125 193 141 109 180 124 131 143 148 143 186 153
185 190 182 184 188 185 183 192 198 184 185 189 169 206 206 184 199 168 209 169 204 287 228 252 263 267 266 213 242 252 222 237 234 240 148 233 238 255 133 130 126 145 136 144 130
175 193 179 190 193 189 178 193 194 178 150 169 193 188 189 189 198 165 204 210 223 283 225 256 262 270 258 246 242 235 231 230 235 227 230 232 240 225 141 173 191 220 140 141 156
179 186 175 180 189 182 186 187 198 160 187 169 175 180 189 162 191 165 200 204 199 265 225 255 267 270 260 246 231 232 232 226 237 221 225 223 238 231 210 225 127 212 139 174 206
177 176 180 154 185 188 190 190 196 175 177 161 189 181 169 179 181 206 191 205 199 286 229 252 275 268 251 250 232 232 232 233 229 230 218 215 228 252 220 129 126 195 219 186 159
182 179 178 168 163 187 191 206 199 187 142 194 180 177 160 182 204 189 184 188 191 279 239 229 238 276 253 239 240 238 227 232 234 235 209 216 197 217 215 217 209 200 201 212 208
171 187 192 193 190 162 197 200 189 159 191 183 186 111 189 166 189 188 188 208 197 273 240 220 241 237 257 241 238 229 219 221 218 224 230 228 194 182 204 208 208 220 118 131 121
200 193 201 169 181 191 164 176 166 167 193 183 191 180 155 178 183 196 186 178 191 264 236 215 238 244 229 252 247 236 225 221 224 225 217 167 116 160 229 112 213 213 127 122 125
194 197 192 196 200 193 192 165 194 171 153 186 167 182 180 162 198 193 191 172 192 241 378 210 227 241 234 229 241 243 239 227 220 221 214 218 114 216 199 156 222 226 228 229 230
215 179 177 187 184 201 196 192 198 187 197 164 187 190 172 167 187 184 180 165 201 183 346 210 214 237 247 238 230 238 234 236 246 228 225 224 229 216 222 216 219 229 228 219 220
182 183 203 155 185 181 202 179 202 189 187 164 166 181 157 194 199 181 203 208 193 211 274 211 217 219 238 246 238 231 232 242 234 222 221 223 222 218 213 211 207 211 212 217 224
217 219 185 186 191 167 186 196 178 188 198 185 196 197 199 150 175 191 208 167 200 204 263 217 215 217 214 236 249 245 241 237 230 226 234 219 220 221 222 213 214 217 213 206 216
241 162 186 177 199 188 179 187 184 177 191 156 164 186 172 182 193 186 170 171 193 190 246 276 207 211 213 221 243 239 230 237 219 222 228 229 218 218 217 215 207 209 213 215 215
232 242 189 183 184 200 200 192 197 185 187 195 193 185 194 196 192 202 175 164 212 207 210 265 213 207 207 221 229 234 240 233 226 230 213 213 211 203 205 219 229 218 209 198 123
241 237 231 196 199 187 196 199 186 162 183 203 189 185 196 187 196 194 183 184 203 194 207 225 204 206 176 228 209 229 207 221 229 221 219 218 219 221 216 217 215 197 209 125 155
250 238 226 191 199 182 184 196 182 188 124 196 194 197 205 174 198 192 181 193 183 195 195 262 270 209 217 211 209 204 212 214 206 205 216 213 210 214 208 199 203 205 210 147 210
251 240 225 112 237 221 207 190 191 128 188 200 198 195 174 206 204 165 183 186 192 207 204 208 273 217 235 219 209 201 214 216 218 219 212 206 207 209 204 205 205 200 208 217 211
261 247 219 226 237 221 208 136 153 198 213 204 188 163 189 191 195 170 167 203 179 202 188 199 277 249 200 215 204 214 217 213 214 209 212 212 215 206 208 215 213 217 216 211 238
267 248 146 216 234 219 213 183 191 195 213 202 193 183 184 186 182 203 202 183 193 213 183 191 274 253 213 213 241 240 226 218 217 214 222 233 229 216 215 205 203 204 206 232 220
258 255 171 237 226 221 207 206 199 209 218 205 206 178 206 167 205 166 215 209 213 223 202 196 273 253 230 216 234 231 231 230 226 223 215 202 208 200 209 207 202 201 226 218 205
270 266 172 220 179 181 187 217 158 187 210 213 211 177 210 214 215 192 188 204 187 225 189 185 242 259 233 231 235 224 217 223 213 207 207 208 208 209 211 209 245 235 220 203 194
276 271 257 238 228 187 191 223 182 189 202 209 209 205 183 193 190 208 216 213 195 199 189 180 193 265 209 227 227 217 226 215 209 210 213 208 212 226 200 253 237 221 211 192 192

GFSSW_2pvu_pres_030.txt.gz
Presure
204 194 193 194 201 195 182 198 194 192 151 188 194 192 192 202 200 195 188 209 171 189 210 218 279 243 265 271 271 266 252 258 276 264 249 264 281 283 242 174 143 143 132 125 131
188 210 204 193 192 188 186 190 171 170 137 185 189 182 172 188 197 204 199 196 216 213 223 217 276 246 343 368 299 275 254 258 272 259 273 252 276 190 277 201 279 114 219 148 259
204 202 196 182 189 190 191 202 195 190 193 190 182 197 183 190 190 173 212 218 200 112 221 231 268 245 302 383 283 258 236 274 242 267 258 246 126 230 267 263 232 253 130 238 141
196 186 184 183 181 181 194 185 185 182 200 188 184 185 176 205 202 183 192 174 194 211 218 214 265 267 288 342 271 241 272 265 267 242 240 206 142 259 185 106 133 124 134 241 139
195 193 188 200 202 192 183 191 190 184 189 183 192 189 179 130 145 186 206 192 198 211 197 208 262 269 285 284 255 265 254 253 248 246 175 186 145 249 126 165 170 185 222 235 258
191 186 199 200 196 184 190 192 196 187 189 189 167 166 190 198 154 191 208 200 204 201 174 220 257 248 287 264 266 259 249 248 239 249 244 243 246 244 126 261 117 241 158 165 230
184 188 186 182 190 193 187 192 191 177 187 186 195 186 149 190 203 191 192 171 205 194 220 219 257 256 285 267 257 252 235 231 226 229 238 225 258 142 138 251 225 133 126 134 135
188 183 184 192 182 187 184 193 184 192 168 182 174 180 192 159 185 199 207 175 175 212 220 219 255 252 280 258 241 254 232 247 234 236 232 246 137 130 221 157 125 119 194 136 130
186 183 189 164 195 193 180 182 192 179 182 174 189 181 183 150 207 203 205 200 207 193 220 215 256 222 273 258 239 244 233 238 229 243 245 257 242 241 221 234 162 209 167 137 136
187 189 186 199 195 173 191 175 183 176 182 172 176 187 151 150 170 198 196 191 207 189 180 212 255 217 277 253 244 233 221 229 222 246 242 241 236 223 218 209 209 206 221 178 138
199 184 194 177 182 179 184 185 183 180 189 171 188 201 212 200 189 186 211 170 214 188 214 209 252 218 249 255 245 236 228 225 232 239 225 222 230 209 227 226 219 214 221 216 220
165 201 171 194 187 180 171 197 174 189 179 186 203 182 200 199 181 203 165 161 169 208 203 205 284 215 242 255 246 238 236 228 230 232 248 227 212 220 218 198 220 201 210 199 115
180 196 176 183 160 184 188 177 178 184 180 185 194 195 190 202 155 201 170 160 195 197 192 194 322 220 214 242 249 246 235 230 226 232 234 237 215 205 232 209 201 205 193 192 191
201 170 198 186 190 207 186 213 173 168 193 147 205 203 192 195 184 199 197 214 181 211 191 201 242 220 213 247 237 243 246 230 223 220 224 232 234 216 197 218 209 192 196 193 197
164 166 192 159 181 185 184 171 180 185 203 187 196 193 187 191 200 180 202 193 189 204 191 197 216 241 212 221 244 235 238 238 229 224 219 221 226 226 227 208 202 118 210 217 202
169 203 172 182 197 174 198 195 175 189 192 173 186 163 206 196 169 197 201 198 185 187 202 207 206 324 203 208 216 243 235 234 233 231 229 225 225 224 224 227 221 212 217 218 220
219 258 194 174 224 208 193 181 174 200 170 200 192 176 202 200 180 187 175 189 181 198 208 206 198 225 248 202 215 241 247 238 237 240 228 226 227 218 221 222 219 220 221 217 214
268 234 270 212 218 178 187 196 189 177 176 184 182 189 190 198 197 180 173 204 182 179 196 200 203 207 296 209 204 224 244 247 246 243 232 220 224 228 218 218 221 223 223 220 225
262 259 244 251 246 259 240 244 197 169 188 190 178 191 193 166 196 191 206 184 187 192 202 194 193 208 227 297 209 230 218 237 237 244 236 224 224 227 213 209 210 211 212 214 212
256 250 254 253 252 252 230 170 183 203 173 166 181 191 183 189 191 191 174 185 205 182 189 206 192 202 225 127 163 226 134 224 212 234 238 234 219 220 209 207 205 203 216 216 215
251 254 234 255 253 256 242 228 201 156 166 188 184 203 179 176 202 167 188 202 195 183 199 215 199 191 149 283 202 219 218 211 219 212 216 211 214 225 225 220 217 213 213 205 196
262 260 258 242 260 257 244 225 219 214 202 197 175 184 184 197 153 194 164 161 210 196 211 175 208 183 209 289 235 236 216 201 203 205 206 219 217 216 212 212 206 203 204 201 203
268 261 255 241 271 242 243 227 219 208 217 197 187 185 199 197 163 171 171 196 197 181 180 187 226 198 205 284 259 207 220 204 214 216 208 209 211 200 207 205 207 206 207 204 206
271 265 263 246 265 247 248 231 211 146 222 202 183 198 196 191 197 192 154 169 187 202 213 220 208 208 203 244 264 229 242 239 237 237 214 212 205 203 204 208 208 215 219 229 223
296 278 179 234 199 249 234 224 218 221 220 209 204 206 190 188 186 191 191 170 209 213 219 166 185 200 180 206 275 228 231 230 232 229 221 228 220 221 218 217 216 214 212 212 217
318 291 277 92 232 89 199 216 221 217 219 209 204 162 193 202 184 193 197 214 211 212 170 186 175 192 191 191 256 248 223 203 224 223 216 214 213 214 209 191 189 203 209 214 201
344 290 286 217 219 178 240 226 220 205 211 208 196 197 205 198 197 190 181 202 205 186 209 196 197 196 195 182 207 246 238 228 214 213 208 205 203 209 204 205 226 224 218 228 237

GFSSW_2pvu_pres_033.txt.gz
Presure
164 206 220 215 214 192 197 207 212 201 170 205 193 197 201 178 197 200 188 198 181 141 200 218 185 231 242 270 289 361 313 259 251 278 273 265 252 282 266 107 262 218 235 244 232
213 212 212 207 205 185 180 213 193 206 182 183 190 190 185 195 190 198 200 196 160 182 220 198 185 225 251 265 371 339 257 247 251 272 274 199 257 261 253 216 278 271 226 150 237
204 201 206 230 102 201 209 189 205 181 183 184 182 184 185 207 196 193 197 188 212 145 196 184 207 198 267 249 359 264 256 247 270 262 264 243 250 242 254 277 279 277 235 256 236
209 207 207 193 182 204 188 197 181 182 183 215 187 190 190 199 192 190 170 165 190 205 181 205 196 220 272 248 282 261 273 274 252 250 259 247 259 266 245 266 252 238 250 251 245
205 198 186 188 203 200 194 188 187 186 188 197 211 187 194 189 182 191 198 193 199 183 220 183 194 212 261 233 276 273 260 257 257 244 252 250 265 267 258 160 135 243 236 203 186
213 198 201 196 199 195 199 188 182 192 194 196 174 185 190 192 199 180 192 187 193 184 180 186 193 213 258 227 289 267 253 240 247 241 242 243 244 248 255 250 138 244 224 222 179
196 162 189 190 182 200 189 186 188 192 183 184 190 190 190 191 186 186 193 163 178 208 200 181 198 215 254 222 268 265 246 244 247 243 232 238 244 132 167 193 250 239 223 123 132
172 198 213 196 182 183 201 182 183 195 193 191 192 189 184 182 191 183 190 200 221 173 199 176 197 210 250 216 262 245 252 239 217 233 227 233 239 240 234 234 211 192 211 188 143
191 197 195 197 187 168 189 192 191 208 191 191 180 176 192 191 183 193 209 197 210 204 199 190 200 203 239 213 266 243 244 235 242 247 246 230 196 247 235 240 229 135 141 184 208
148 203 178 193 191 174 179 178 184 181 187 190 191 195 190 170 181 203 178 178 201 207 171 170 196 195 218 215 246 253 233 229 229 237 246 239 248 236 228 222 226 141 198 131 134
174 169 164 180 158 203 168 182 185 179 181 180 185 199 196 209 187 149 193 201 181 169 168 178 186 203 215 217 237 256 243 235 230 235 243 241 243 239 221 213 140 134 222 209 129
185 188 187 172 177 195 199 164 183 193 175 176 173 167 180 193 190 192 211 206 167 192 207 173 194 207 223 231 213 258 237 242 233 231 234 231 235 239 218 220 224 206 202 199 199
182 184 162 163 164 154 197 187 177 189 173 196 179 186 180 183 182 178 201 191 160 212 171 182 185 204 207 226 207 233 243 237 233 226 233 242 227 162 239 202 211 216 201 204 207
199 179 201 158 189 159 191 171 177 192 170 173 181 174 173 197 190 167 185 196 206 167 181 226 200 189 208 225 208 200 227 241 240 230 222 226 242 207 218 205 217 213 204 214 201
188 195 199 173 195 160 174 184 198 174 198 207 173 186 171 183 179 187 204 138 208 202 160 191 203 186 193 211 252 205 215 245 243 232 226 220 227 226 202 214 222 219 204 202 193
184 180 189 197 179 192 176 180 180 185 183 177 190 184 170 176 189 190 190 213 191 175 212 176 210 197 192 198 223 211 204 218 239 241 232 225 225 224 227 219 203 199 220 197 190
214 199 214 145 200 187 167 187 181 157 160 175 197 173 176 178 177 188 169 186 184 196 168 208 201 196 208 192 222 268 206 220 249 239 232 232 236 235 227 228 223 213 200 212 211
270 222 206 185 213 202 166 207 191 201 176 182 198 184 180 190 165 183 186 177 206 193 184 172 192 211 179 196 212 276 197 125 221 246 237 234 233 238 230 227 221 220 222 221 219
230 253 241 237 248 170 218 182 199 217 150 197 165 166 162 207 214 184 194 190 193 214 170 184 188 206 202 182 199 237 245 235 199 235 236 242 229 227 220 221 227 221 217 218 221
279 272 268 267 218 233 244 231 199 227 199 207 219 216 207 203 173 186 185 186 206 188 186 195 181 200 205 193 195 231 216 207 214 176 227 232 231 226 221 214 218 220 215 214 213
238 281 287 270 259 257 269 258 219 209 197 201 207 159 190 215 204 175 182 174 188 174 170 197 176 182 190 208 179 227 271 251 220 215 202 212 221 207 222 216 212 213 213 214 217
394 369 264 278 269 275 266 254 223 254 238 245 222 223 212 214 183 215 172 175 188 181 199 204 200 178 211 228 176 221 282 210 193 205 205 207 208 204 223 212 219 215 214 213 212
338 402 372 360 286 274 261 265 259 164 238 99 241 219 211 211 193 178 200 191 189 177 199 168 169 212 221 188 132 209 233 261 202 207 208 211 222 202 207 204 206 201 204 209 209
311 396 366 352 343 291 272 260 253 236 232 230 240 221 214 211 198 193 186 191 187 181 200 186 187 212 181 223 194 186 213 266 244 242 235 253 227 229 209 209 206 204 202 205 209
315 374 370 150 357 318 289 260 252 161 230 240 231 219 214 215 194 202 204 195 196 194 180 192 186 196 219 188 197 193 195 246 249 236 210 236 232 233 209 213 212 222 221 221 221
311 317 204 107 167 339 91 261 239 227 238 233 223 174 216 212 207 205 201 203 183 205 177 187 157 209 225 201 204 184 190 210 263 241 227 219 209 226 222 216 215 207 211 209 206
312 322 589 288 97 99 290 244 231 228 235 225 219 226 215 208 209 205 207 201 190 190 200 177 205 175 223 206 185 229 190 207 237 239 223 213 214 215 209 212 199 204 208 209 217